[[{"header":{"parameterUnit":"m.s-1","parameterCategory":1,"la1":30.2991,"la2":30.254,"lo1":-89.0895,"lo2":-89.0444,"dy":0.0017,"dx":0.0017,"nx":28,"ny":28,"refTime":"2025-05-31T03:00:00:Z","depth":0,"parameterNumber":2,"parameterNumberName":"U-component_of_WINDS"},"data":[0,0,0,0,0,0,0,0,0,0,0,0,0,0,0,0,0,0,0,0,0,0,0,0,0,0,0,0,0,0,0,0,0,0,0,0,0,0,0,0,0,0,0,0,0,0,0,0,0,0,0,0,0,0,0,0,0,0,-0.2993,-0.2992,0,-0.2946,-0.2945,-0.2945,-0.2861,-0.2859,-0.2857,-0.2856,-0.281,-0.281,-0.281,0,0,0,0,0,0,0,0,0,0,0,0,0,-0.3011,-0.3011,-0.2993,-0.2992,-0.2992,-0.2946,-0.2945,-0.2945,-0.2861,-0.2859,-0.2857,-0.2855,-0.281,-0.281,-0.281,0,0,0,0,0,0,0,0,0,0,0,0,0,-0.2987,-0.3011,-0.2993,-0.2944,-0.2939,-0.2946,-0.2945,-0.2944,-0.2861,-0.2859,-0.2856,-0.2854,-0.281,-0.281,-0.281,-0.2861,0,0,-0.2812,-0.2812,0,0,0,0,0,0,0,0,-0.2989,-0.2987,-0.2952,-0.2948,-0.2942,-0.2906,-0.2934,-0.2917,-0.2862,-0.2891,-0.2856,-0.2853,-0.2844,-0.2841,-0.2838,-0.2859,-0.2857,-0.2812,-0.2812,-0.2812,-0.2812,0,0,0,0,0,0,0,-0.2991,-0.2988,-0.2974,-0.2952,-0.2946,-0.2925,-0.2919,-0.2931,-0.2882,-0.2888,-0.2882,-0.2878,-0.2841,-0.2838,-0.2836,-0.2856,-0.2812,-0.2812,-0.2812,-0.2812,-0.2916,-0.2918,0,0,0,0,0,0,-0.2999,-0.299,-0.2976,-0.2973,-0.296,-0.2927,-0.292,-0.292,-0.2881,-0.2873,-0.288,-0.2874,-0.2838,-0.2836,-0.2834,-0.2891,-0.2812,-0.2812,-0.2813,-0.2913,-0.2916,-0.2919,0,0,0,0,0,0,-0.3,-0.2999,-0.2978,-0.298,-0.2975,-0.2929,-0.293,-0.2921,-0.2918,-0.2875,-0.2866,-0.2886,-0.2836,-0.2834,-0.2855,-0.2888,-0.2813,-0.2813,-0.291,-0.2914,-0.2917,-0.3006,0,0,0,0,0,0,-0.3001,-0.2999,-0.3018,-0.2981,-0.2976,-0.2999,-0.2932,-0.2922,-0.2918,-0.291,-0.2878,-0.287,-0.2834,-0.2855,-0.2855,-0.2888,-0.2813,-0.2907,-0.2912,-0.2916,-0.3,-0.3012,-0.3023,0,0,0,0,0,-0.3002,-0.3046,-0.302,-0.3018,-0.2998,-0.3001,-0.2998,-0.2955,-0.2921,-0.294,-0.2912,-0.2871,-0.2884,-0.2857,-0.2857,-0.2891,-0.2905,-0.291,-0.2916,-0.2995,-0.301,-0.3022,0,0,0,0,0,0,-0.309,-0.304,-0.3011,-0.3044,-0.3027,-0.2987,-0.3009,-0.2973,-0.2966,-0.2959,-0.2906,-0.29,-0.2928,-0.2911,-0.2882,-0.2937,-0.2888,-0.2894,-0.2948,-0.2962,-0.2973,-0.2977,-0.2814,0,0,0,0,0,-0.3113,-0.3119,-0.3075,-0.3108,-0.3101,-0.3057,-0.3057,-0.3025,-0.3006,-0.2999,-0.2972,-0.2956,-0.2956,-0.2958,-0.2955,-0.2996,-0.2988,-0.3018,-0.303,-0.3039,-0.3046,-0.3066,-0.3079,-0.2937,-0.2937,-0.2937,0,0,-0.3161,-0.3134,-0.3142,-0.3125,-0.3109,-0.3117,-0.3052,-0.3063,-0.3068,-0.3,-0.3019,-0.2999,-0.2977,-0.3008,-0.302,-0.2994,-0.3083,-0.3047,-0.3055,-0.3056,-0.3073,-0.3086,-0.3098,-0.2941,-0.294,-0.294,0,0,-0.3253,-0.3233,-0.3259,-0.3243,-0.3218,-0.3188,-0.3194,-0.3159,-0.3143,-0.316,-0.3109,-0.3114,-0.3116,-0.3102,-0.3095,-0.318,-0.3142,-0.318,-0.3241,-0.3261,-0.3272,-0.3282,-0.3313,-0.3324,-0.3186,-0.3186,-0.3187,0,-0.3316,-0.3326,-0.3277,-0.3291,-0.3285,-0.3222,-0.3248,-0.3235,-0.3211,-0.3209,-0.318,-0.318,-0.3161,-0.3187,-0.3208,-0.3204,-0.321,-0.3185,-0.3274,-0.3284,-0.3292,-0.3321,-0.3332,-0.3191,-0.3191,-0.319,-0.319,0,-0.3405,-0.3412,-0.3436,-0.3414,-0.341,-0.343,-0.3384,-0.3387,-0.3354,-0.3327,-0.3345,-0.3319,-0.331,-0.3314,-0.3283,-0.3336,-0.3321,-0.3284,-0.3234,-0.3311,-0.3337,-0.3348,-0.3198,-0.3197,-0.3195,-0.3194,0,0,-0.3554,-0.3503,-0.3512,-0.3501,-0.3468,-0.3473,-0.3489,-0.3479,-0.3483,-0.3468,-0.3481,-0.3482,-0.3447,-0.344,-0.3406,-0.3423,-0.3492,-0.3384,-0.3383,-0.3406,-0.355,-0.3579,-0.3592,-0.3466,-0.3468,-0.3469,-0.3552,0,-0.3641,-0.3666,-0.3621,-0.3657,-0.3663,-0.3602,-0.3617,-0.3598,-0.3572,-0.3574,-0.3545,-0.3547,-0.3501,-0.3496,-0.351,-0.3481,-0.3521,-0.3474,-0.3478,-0.3479,-0.3488,-0.3606,-0.3637,-0.3716,-0.3561,-0.3563,-0.3564,0,-0.3745,-0.3735,-0.3771,-0.3735,-0.3735,-0.3749,-0.3736,-0.3738,-0.3715,-0.3695,-0.3685,-0.3645,-0.3658,-0.3608,-0.3626,-0.3596,-0.3594,-0.358,-0.3582,-0.3582,-0.3528,-0.3611,-0.374,-0.3753,-0.358,-0.3579,-0.3578,0,-0.3852,-0.3846,-0.3867,-0.3859,-0.3817,-0.3828,-0.3811,-0.3785,-0.3782,-0.377,-0.3768,-0.3758,-0.3753,-0.3747,-0.3705,-0.3672,-0.3728,-0.3674,-0.3712,-0.3713,-0.3729,-0.3729,-0.3862,-0.3725,-0.3725,-0.3725,-0.3724,0,-0.3954,-0.398,-0.3914,-0.3928,-0.3953,-0.3901,-0.3928,-0.3905,-0.3882,-0.389,-0.3836,-0.3844,-0.3787,-0.3789,-0.3756,-0.3776,-0.3774,-0.3758,-0.375,-0.3764,-0.3767,-0.3764,-0.3758,-0.3728,-0.3727,-0.3727,-0.3726,0,-0.4079,-0.4036,-0.4055,-0.4013,-0.4002,-0.4024,-0.3987,-0.3998,-0.3967,-0.3977,-0.3977,-0.3929,-0.3929,-0.3885,-0.3876,-0.3853,-0.3887,-0.3868,-0.3896,-0.389,-0.3931,-0.3928,-0.4068,-0.4084,-0.3937,-0.3938,-0.3939,0,-0.4148,-0.4166,-0.4125,-0.4125,-0.4111,-0.4113,-0.4108,-0.4057,-0.4055,-0.4029,-0.4042,-0.4037,-0.403,-0.4031,-0.3997,-0.3988,-0.3969,-0.4018,-0.3968,-0.3982,-0.3971,-0.3971,-0.3973,-0.403,-0.4032,-0.4034,-0.4035,0,-0.4276,-0.4253,-0.4249,-0.4237,-0.4234,-0.4222,-0.4207,-0.4211,-0.4154,-0.4154,-0.4152,-0.4147,-0.4136,-0.4131,-0.4117,-0.4099,-0.4058,-0.405,-0.4059,-0.4075,-0.4091,-0.4084,-0.3926,-0.4048,-0.4047,-0.4046,-0.4045,-0.4045,-0.4376,-0.4388,-0.4361,-0.4358,-0.4341,-0.4327,-0.4335,-0.4304,-0.4302,-0.4289,-0.4258,-0.4261,-0.4236,-0.4211,-0.4197,-0.4198,-0.4173,-0.4185,-0.4189,-0.4193,-0.4201,-0.4089,-0.4195,-0.4194,-0.4194,-0.4194,-0.4193,0,-0.4501,-0.448,-0.4478,-0.4458,-0.4455,-0.4415,-0.4395,-0.4396,-0.4399,-0.4379,-0.4372,-0.437,-0.4364,-0.4328,-0.4318,-0.4326,-0.4307,-0.4325,-0.4325,-0.4322,-0.4224,-0.4218,-0.4341,-0.4341,-0.4341,-0.4341,-0.4341,-0.4341,-0.4567,-0.4586,-0.456,-0.457,-0.4548,-0.455,-0.4542,-0.453,-0.4513,-0.4512,-0.4507,-0.4482,-0.4455,-0.4443,-0.4436,-0.4425,-0.4425,-0.445,-0.4433,-0.4343,-0.4329,-0.4315,-0.4309,-0.445,-0.445,-0.4531,-0.4531,-0.4532]},{"header":{"parameterUnit":"m.s-1","parameterCategory":1,"la1":30.2991,"la2":30.254,"lo1":-89.0895,"lo2":-89.0444,"dy":0.0017,"dx":0.0017,"nx":28,"ny":28,"refTime":"2025-05-31T03:00:00:Z","depth":0,"parameterNumber":3,"parameterNumberName":"V-component_of_WINDS"},"data":[0,0,0,0,0,0,0,0,0,0,0,0,0,0,0,0,0,0,0,0,0,0,0,0,0,0,0,0,0,0,0,0,0,0,0,0,0,0,0,0,0,0,0,0,0,0,0,0,0,0,0,0,0,0,0,0,0,0,-5.5622,-5.5623,0,-5.5661,-5.5662,-5.5662,-5.559,-5.5587,-5.5585,-5.5582,-5.562,-5.5623,-5.5626,0,0,0,0,0,0,0,0,0,0,0,0,0,-5.5481,-5.5484,-5.5622,-5.5623,-5.5623,-5.5661,-5.5662,-5.5662,-5.559,-5.5587,-5.5584,-5.5581,-5.5619,-5.5623,-5.5627,0,0,0,0,0,0,0,0,0,0,0,0,0,-5.5533,-5.5485,-5.5622,-5.5592,-5.5589,-5.5661,-5.5662,-5.5662,-5.5591,-5.5587,-5.5583,-5.558,-5.5618,-5.5623,-5.5627,-5.573,0,0,-5.5642,-5.5644,0,0,0,0,0,0,0,0,-5.5531,-5.5539,-5.5596,-5.5594,-5.5591,-5.5617,-5.5626,-5.5685,-5.5591,-5.559,-5.5582,-5.5578,-5.5622,-5.5626,-5.5641,-5.5732,-5.5733,-5.5643,-5.5646,-5.5648,-5.5649,0,0,0,0,0,0,0,-5.5527,-5.5537,-5.5637,-5.5596,-5.5594,-5.5575,-5.5578,-5.5637,-5.5626,-5.559,-5.5585,-5.559,-5.562,-5.5637,-5.5642,-5.5734,-5.5643,-5.5647,-5.565,-5.5652,-5.5908,-5.5912,0,0,0,0,0,0,-5.5528,-5.5534,-5.5636,-5.5639,-5.5552,-5.558,-5.5584,-5.5612,-5.5625,-5.5623,-5.5594,-5.5587,-5.563,-5.5636,-5.5643,-5.5762,-5.5648,-5.5652,-5.5655,-5.5904,-5.5909,-5.5913,0,0,0,0,0,0,-5.5525,-5.5537,-5.5635,-5.5585,-5.5596,-5.5587,-5.5619,-5.5615,-5.5632,-5.5628,-5.5625,-5.5613,-5.5628,-5.5636,-5.5708,-5.5762,-5.5654,-5.5659,-5.59,-5.5906,-5.5911,-5.6002,0,0,0,0,0,0,-5.5521,-5.5537,-5.5577,-5.5586,-5.5599,-5.5701,-5.5622,-5.5618,-5.5641,-5.5632,-5.5645,-5.5644,-5.5625,-5.5702,-5.5713,-5.5767,-5.5663,-5.5895,-5.5902,-5.5909,-5.5995,-5.6011,-5.6024,0,0,0,0,0,-5.5516,-5.5601,-5.5579,-5.5592,-5.5648,-5.5704,-5.5711,-5.5689,-5.5645,-5.5684,-5.5682,-5.5643,-5.5755,-5.571,-5.5722,-5.5778,-5.5891,-5.59,-5.5909,-5.5988,-5.6007,-5.6024,0,0,0,0,0,0,-5.5596,-5.5601,-5.5577,-5.5668,-5.5686,-5.5692,-5.574,-5.5711,-5.5742,-5.5732,-5.5703,-5.5706,-5.5784,-5.5789,-5.5738,-5.5877,-5.5815,-5.5827,-5.5871,-5.589,-5.5905,-5.5901,-5.5667,0,0,0,0,0,-5.5625,-5.5671,-5.5672,-5.5751,-5.5762,-5.575,-5.5774,-5.5755,-5.5773,-5.578,-5.5782,-5.58,-5.5839,-5.5865,-5.59,-5.5995,-5.5996,-5.604,-5.6055,-5.6067,-5.6077,-5.6126,-5.6145,-5.5942,-5.5942,-5.5942,0,0,-5.5683,-5.5692,-5.5722,-5.5768,-5.578,-5.5827,-5.5757,-5.581,-5.5844,-5.5787,-5.5856,-5.5859,-5.5876,-5.596,-5.5997,-5.5966,-5.6134,-5.6078,-5.6088,-5.6091,-5.6137,-5.6156,-5.6173,-5.5948,-5.5947,-5.5946,0,0,-5.5814,-5.5826,-5.5892,-5.5906,-5.5925,-5.5917,-5.5933,-5.5943,-5.5943,-5.6011,-5.597,-5.6009,-5.6077,-5.6091,-5.6107,-5.6243,-5.6208,-5.6255,-5.6333,-5.638,-5.6396,-5.641,-5.6456,-5.6474,-5.6265,-5.6266,-5.6266,0,-5.5884,-5.5954,-5.593,-5.5986,-5.6006,-5.5958,-5.6024,-5.6038,-5.6068,-5.6083,-5.6048,-5.6132,-5.614,-5.6226,-5.6259,-5.6274,-5.629,-5.6253,-5.6396,-5.641,-5.6422,-5.6466,-5.6484,-5.6271,-5.627,-5.627,-5.6269,0,-5.6038,-5.6087,-5.6138,-5.6169,-5.6195,-5.6256,-5.624,-5.627,-5.6249,-5.6243,-5.6313,-5.6322,-5.6358,-5.6377,-5.6357,-5.6459,-5.6439,-5.6401,-5.6338,-5.6448,-5.6488,-5.6505,-5.6279,-5.6277,-5.6275,-5.6274,0,0,-5.6219,-5.6236,-5.6255,-5.6267,-5.6285,-5.6322,-5.638,-5.6416,-5.6441,-5.6463,-5.651,-5.6568,-5.6533,-5.6551,-5.6532,-5.6575,-5.6679,-5.6531,-5.653,-5.6556,-5.679,-5.6817,-5.6837,-5.6657,-5.666,-5.6662,-5.6787,0,-5.6347,-5.6448,-5.6428,-5.6526,-5.6569,-5.6524,-5.6575,-5.659,-5.6587,-5.6623,-5.6619,-5.666,-5.6611,-5.6621,-5.6661,-5.6658,-5.6725,-5.6649,-5.6698,-5.67,-5.6693,-5.6858,-5.6887,-5.7005,-5.6803,-5.6806,-5.6808,0,-5.651,-5.6539,-5.6641,-5.6651,-5.6668,-5.6714,-5.6744,-5.678,-5.6796,-5.679,-5.6811,-5.6784,-5.684,-5.6778,-5.6854,-5.6802,-5.6821,-5.6823,-5.6827,-5.6829,-5.6759,-5.6863,-5.7042,-5.7059,-5.6833,-5.6831,-5.6829,0,-5.6629,-5.6694,-5.6763,-5.6775,-5.6789,-5.6821,-5.6828,-5.6841,-5.6864,-5.689,-5.6904,-5.6937,-5.6954,-5.6979,-5.6961,-5.6918,-5.704,-5.6976,-5.7035,-5.7035,-5.7061,-5.7059,-5.7244,-5.7077,-5.7077,-5.7076,-5.7076,0,-5.6773,-5.6837,-5.6816,-5.6859,-5.6928,-5.6904,-5.6974,-5.6975,-5.6987,-5.7028,-5.6991,-5.703,-5.7005,-5.7041,-5.7028,-5.7091,-5.71,-5.7096,-5.7091,-5.7098,-5.7098,-5.7108,-5.7099,-5.7081,-5.708,-5.7079,-5.7078,0,-5.6918,-5.6907,-5.6979,-5.6986,-5.6989,-5.704,-5.7045,-5.7083,-5.7077,-5.7129,-5.714,-5.713,-5.7171,-5.7156,-5.72,-5.7191,-5.7271,-5.7257,-5.7266,-5.7261,-5.732,-5.7313,-5.7515,-5.754,-5.736,-5.7362,-5.7363,0,-5.7009,-5.7057,-5.707,-5.7094,-5.7104,-5.7145,-5.7167,-5.7146,-5.717,-5.7192,-5.7228,-5.7266,-5.7294,-5.7362,-5.7358,-5.7391,-5.7375,-5.7444,-5.738,-5.7385,-5.7373,-5.737,-5.7374,-5.7456,-5.7458,-5.746,-5.7461,0,-5.7172,-5.7164,-5.7199,-5.7231,-5.7259,-5.7283,-5.7304,-5.7326,-5.7306,-5.7335,-5.7377,-5.7399,-5.7444,-5.7481,-5.751,-5.7516,-5.7485,-5.7482,-5.7496,-5.7503,-5.7505,-5.7502,-5.7298,-5.7477,-5.7475,-5.7474,-5.7473,-5.7473,-5.7292,-5.7331,-5.7346,-5.7385,-5.7398,-5.7418,-5.7454,-5.7453,-5.7488,-5.7522,-5.7507,-5.7555,-5.7569,-5.7605,-5.7615,-5.7651,-5.7624,-5.7646,-5.7651,-5.7656,-5.7663,-5.7501,-5.7656,-5.7656,-5.7655,-5.7655,-5.7655,0,-5.745,-5.7458,-5.7494,-5.7524,-5.7554,-5.7524,-5.7545,-5.7572,-5.7614,-5.763,-5.766,-5.7706,-5.7742,-5.7741,-5.7774,-5.7803,-5.7789,-5.7812,-5.7808,-5.781,-5.7686,-5.7669,-5.7823,-5.7822,-5.7822,-5.7822,-5.7822,-5.7822,-5.7537,-5.7602,-5.7595,-5.7666,-5.7672,-5.7719,-5.7733,-5.7751,-5.7763,-5.7818,-5.7847,-5.7847,-5.7856,-5.7889,-5.792,-5.7918,-5.7931,-5.7959,-5.7952,-5.7836,-5.7819,-5.7803,-5.7786,-5.7962,-5.7963,-5.8072,-5.8073,-5.8074]}]]